Weather History for Dayton Wright, OH

Change the Weather History Date:

Thursday, October 10, 2013

  Actual Average (KFFO) Record (KFFO)
Temperature  
Mean Temperature 58 °F -  
Max Temperature 73 °F 65 °F 86 °F (2010)
Min Temperature 44 °F 42 °F 34 °F (2012)
Degree Days  
Heating Degree Days 6    
Growing Degree Days 8 (Base 50)    
Moisture  
Dew Point 43 °F    
Average Humidity 61    
Maximum Humidity 89    
Minimum Humidity 31    
Precipitation  
Precipitation 0.00 in - - ()
Sea Level Pressure  
Sea Level Pressure 30.15 in    
Wind  
Wind Speed 5 mph (NE)    
Max Wind Speed 8 mph    
Max Gust Speed -    
Visibility 10 miles    
Events      
Averages and records for this station are not official NWS values.
T = Trace of Precipitation, MM = Missing Value Source: NWS Daily Summary

Daily Weather History Graph

Daily Weather History Graph

Search for Another Location

Airport:

Trip Planner

Search our weather history database for the weather conditions in past years. The results will help you decide how hot, cold, wet, or windy it might be!

Date:

Astronomy

Oct. 10, 2013 Rise Set
Actual Time 7:42 AM EDT 7:04 PM EDT
Civil Twilight 7:15 AM EDT 7:31 PM EDT
Nautical Twilight 6:43 AM EDT 8:02 PM EDT
Astronomical Twilight 6:12 AM EDT 8:34 PM EDT
Moon 1:32 PM EDT (10/10) 11:42 PM EDT (10/10)
Length of Visible Light 12h 16m
Length of Day
11h 22m
Waxing Crescent, 35% of the Moon is Illuminated
Oct 10
Waxing Crescent
Oct 11
First Quarter
Oct 18
Full
Oct 26
Last Quarter
Nov 3
New

Hourly Weather History & Observations

Time (EDT) Temp. Windchill Dew Point Humidity Pressure Visibility Wind Dir Wind Speed Gust Speed Precip Events Conditions
12:53 AM 53.1 °F - 44.1 °F 71% 30.17 in 10.0 mi East 6.9 mph - N/A   Clear
1:53 AM 48.9 °F - 43.0 °F 80% 30.17 in 10.0 mi ENE 5.8 mph - N/A   Clear
2:53 AM 46.9 °F - 42.1 °F 83% 30.16 in 10.0 mi NE 5.8 mph - N/A   Clear
3:53 AM 46.9 °F - 42.1 °F 83% 30.16 in 10.0 mi NE 5.8 mph - N/A   Clear
4:53 AM 46.9 °F - 42.1 °F 83% 30.17 in 10.0 mi NE 6.9 mph - N/A   Unknown
5:53 AM 46.0 °F 42.5 °F 42.1 °F 86% 30.17 in 10.0 mi NE 6.9 mph - N/A   Unknown
6:53 AM 44.1 °F 40.1 °F 41.0 °F 89% 30.19 in 10.0 mi NE 6.9 mph - N/A   Unknown
7:53 AM 44.1 °F 39.5 °F 41.0 °F 89% 30.19 in 10.0 mi ENE 8.1 mph - N/A   Unknown
8:53 AM 50.0 °F - 44.1 °F 80% 30.20 in 10.0 mi NE 5.8 mph - N/A   Unknown
9:53 AM 55.9 °F - 45.0 °F 67% 30.19 in - North - - N/A   Unknown
10:53 AM 62.1 °F - 45.0 °F 53% 30.20 in - NE 3.5 mph - N/A   Unknown
11:53 AM 66.9 °F - 44.1 °F 44% 30.19 in 10.0 mi Variable 3.5 mph - N/A   Clear
12:53 PM 68.0 °F - 39.9 °F 36% 30.18 in 10.0 mi Calm Calm - N/A   Clear
1:53 PM 69.1 °F - 43.0 °F 39% 30.17 in 10.0 mi NE 5.8 mph - N/A   Clear
2:53 PM 71.1 °F - 41.0 °F 34% 30.14 in 10.0 mi NNW 3.5 mph - N/A   Clear
3:53 PM 71.1 °F - 42.1 °F 35% 30.13 in 10.0 mi WNW 3.5 mph - N/A   Clear
4:53 PM 73.0 °F - 41.0 °F 31% 30.11 in 10.0 mi Calm Calm - N/A   Clear
5:53 PM 72.0 °F - 43.0 °F 35% 30.10 in 10.0 mi Calm Calm - N/A   Clear
6:53 PM 68.0 °F - 45.0 °F 43% 30.10 in 10.0 mi Calm Calm - N/A   Clear
7:53 PM 63.0 °F - 44.1 °F 50% 30.10 in 10.0 mi Calm Calm - N/A   Clear
8:53 PM 60.1 °F - 44.1 °F 55% 30.09 in 10.0 mi Calm Calm - N/A   Clear
9:53 PM 59.0 °F - 43.0 °F 55% 30.09 in 10.0 mi Calm Calm - N/A   Clear
10:53 PM 55.0 °F - 46.0 °F 72% 30.09 in 10.0 mi ENE 3.5 mph - N/A   Clear
11:53 PM 52.0 °F - 46.0 °F 80% 30.08 in 10.0 mi NE 3.5 mph - N/A   Clear